Location: Lake Lucerne
(45.5315°N, 88.8489°W)
Time: 08:40:33

ISS - Pass Details

Date: 04 March 2018
Orbit: 403 x 406 km, 51.6° (Epoch: 22 March)

Event Time Altitude Azimuth Distance (km) Brightness Sun altitude
Exits shadow 05:07:31 34° 269° (W) 689 -3.2 -15.0°
Maximum altitude 05:08:42 61° 335° (NNW) 467 -3.7 -14.8°
Drops below altitude 10° 05:11:58 10° 57° (ENE) 1,467 0.0 -14.2°
Sets 05:14:04 0° 61° (ENE) 2,329 1.3 -13.8°
